Location: *
(51.8167°N, 12.5000°E)
Time: 16:00:24
(UTC+00:00)

ARGOS - Pass Details

Date: 16 September 2019
Orbit: 821 x 834 km, 98.5° (Epoch: 14 October)

Event Time Altitude Azimuth Distance (km) Brightness Sun altitude
Exits shadow 18:08:20 - 135° (SE) 2,895 5.5 -7.7°
Reaches altitude 10° 18:09:36 10° 131° (SE) 2,421 5.0 -7.9°
Maximum altitude 18:14:33 40° 64° (ENE) 1,213 3.7 -8.6°
Drops below altitude 10° 18:19:32 10° 357° (N) 2,442 5.9 -9.4°
Sets 18:22:01 0° 350° (N) 3,382 6.7 -9.7°
